• In United Kingdom
  • List of Countries
  • For 7 days
  • Water Temperature
  • Satellite Maps
  • Weather Map
  • Weather Widgets
  • user-avatar
    Login

    Hourly Weather Telavi

    Today, 22 September, Friday

    Time Temperature Precipitation Wind Pressure Humidity
    00:00 +23°C° 0.1 mm 1 mps 709 mmHg 47%
    01:00 +22°C° 0 mm 1 mps 709 mmHg 47%
    02:00 +22°C° 0 mm 1 mps 708 mmHg 48%
    03:00 +21°C° 0 mm 1 mps 708 mmHg 48%
    04:00 +21°C° 0.1 mm 1 mps 708 mmHg 49%
    05:00 +20°C° 0.1 mm 1 mps 708 mmHg 51%
    06:00 +20°C° 0.1 mm 1 mps 708 mmHg 52%
    07:00 +22°C° 0 mm 1 mps 708 mmHg 46%
    08:00 +24°C° 0 mm 1 mps 708 mmHg 40%
    09:00 +25°C° 0 mm 0 mps 708 mmHg 34%
    10:00 +28°C° 0.1 mm 1 mps 708 mmHg 33%
    11:00 +29°C° 0.1 mm 1 mps 707 mmHg 31%
    12:00 +30°C° 0.1 mm 2 mps 707 mmHg 30%
    13:00 +31°C° 0 mm 2 mps 707 mmHg 29%
    14:00 +31°C° 0 mm 2 mps 707 mmHg 29%
    15:00 +31°C° 0 mm 3 mps 707 mmHg 28%
    16:00 +29°C° 0.1 mm 2 mps 707 mmHg 32%
    17:00 +27°C° 0.1 mm 2 mps 707 mmHg 37%
    18:00 +25°C° 0.1 mm 1 mps 707 mmHg 42%
    19:00 +25°C° 0.1 mm 1 mps 708 mmHg 44%
    20:00 +24°C° 0.1 mm 1 mps 708 mmHg 47%
    21:00 +23°C° 0.1 mm 2 mps 708 mmHg 49%
    22:00 +23°C° 0 mm 2 mps 709 mmHg 50%
    23:00 +21°C° 0 mm 2 mps 709 mmHg 51%

    Tomorrow, 23 September, Saturday

    Time Temperature Precipitation Wind Pressure Humidity
    00:00 +21°C° 0 mm 2 mps 709 mmHg 53%
    01:00 +21°C° 0 mm 2 mps 709 mmHg 54%
    02:00 +21°C° 0 mm 1 mps 709 mmHg 56%
    03:00 +21°C° 0 mm 1 mps 709 mmHg 57%
    04:00 +20°C° 0 mm 1 mps 709 mmHg 58%
    05:00 +20°C° 0 mm 1 mps 709 mmHg 59%
    06:00 +20°C° 0 mm 1 mps 709 mmHg 60%
    07:00 +22°C° 0 mm 1 mps 709 mmHg 53%
    08:00 +24°C° 0 mm 1 mps 710 mmHg 47%
    09:00 +27°C° 0 mm 1 mps 710 mmHg 40%
    10:00 +28°C° 0 mm 2 mps 710 mmHg 36%
    11:00 +29°C° 0 mm 2 mps 710 mmHg 32%
    12:00 +30°C° 0 mm 3 mps 710 mmHg 28%
    13:00 +32°C° 0 mm 4 mps 710 mmHg 28%
    14:00 +32°C° 0 mm 4 mps 710 mmHg 27%
    15:00 +32°C° 0 mm 4 mps 709 mmHg 27%
    16:00 +29°C° 0.1 mm 4 mps 709 mmHg 30%
    17:00 +27°C° 0.1 mm 3 mps 710 mmHg 34%
    18:00 +25°C° 0.1 mm 2 mps 710 mmHg 37%
    19:00 +24°C° 0.1 mm 2 mps 710 mmHg 38%
    20:00 +23°C° 0.1 mm 2 mps 710 mmHg 38%
    21:00 +21°C° 0.1 mm 3 mps 711 mmHg 39%
    22:00 +20°C° 0.1 mm 2 mps 711 mmHg 41%
    23:00 +20°C° 0.1 mm 2 mps 711 mmHg 43%

    Day after tomorrow, 24 September, Sunday

    Time Temperature Precipitation Wind Pressure Humidity
    00:00 +19°C° 0.1 mm 2 mps 711 mmHg 45%
    01:00 +19°C° 0.1 mm 2 mps 711 mmHg 47%
    02:00 +18°C° 0.1 mm 2 mps 711 mmHg 50%
    03:00 +18°C° 0.1 mm 2 mps 711 mmHg 52%
    04:00 +19°C° 0 mm 1 mps 711 mmHg 54%
    05:00 +18°C° 0 mm 1 mps 711 mmHg 55%
    06:00 +18°C° 0 mm 1 mps 711 mmHg 57%
    07:00 +20°C° 0 mm 1 mps 712 mmHg 51%
    08:00 +22°C° 0 mm 1 mps 712 mmHg 45%
    09:00 +25°C° 0 mm 1 mps 712 mmHg 39%
    10:00 +26°C° 0 mm 1 mps 712 mmHg 36%
    11:00 +27°C° 0 mm 2 mps 712 mmHg 32%
    12:00 +28°C° 0 mm 2 mps 712 mmHg 29%
    13:00 +29°C° 0 mm 2 mps 712 mmHg 28%
    14:00 +29°C° 0 mm 3 mps 711 mmHg 27%
    15:00 +29°C° 0 mm 3 mps 711 mmHg 26%
    16:00 +28°C° 0 mm 2 mps 711 mmHg 30%
    17:00 +26°C° 0 mm 2 mps 711 mmHg 34%
    18:00 +24°C° 0 mm 1 mps 711 mmHg 38%
    19:00 +23°C° 0 mm 1 mps 712 mmHg 40%
    20:00 +22°C° 0 mm 1 mps 712 mmHg 42%
    21:00 +21°C° 0 mm 1 mps 712 mmHg 44%
    22:00 +21°C° 0 mm 1 mps 712 mmHg 45%
    23:00 +20°C° 0 mm 1 mps 712 mmHg 46%

    25 September, Monday

    Time Temperature Precipitation Wind Pressure Humidity
    00:00 +19°C° 0 mm 2 mps 712 mmHg 47%
    01:00 +19°C° 0 mm 1 mps 712 mmHg 48%
    02:00 +19°C° 0 mm 1 mps 712 mmHg 49%
    03:00 +18°C° 0 mm 1 mps 712 mmHg 50%
    04:00 +18°C° 0 mm 1 mps 712 mmHg 51%
    05:00 +18°C° 0 mm 1 mps 712 mmHg 52%
    06:00 +16°C° 0 mm 1 mps 712 mmHg 52%
    07:00 +20°C° 0 mm 1 mps 712 mmHg 48%
    08:00 +22°C° 0 mm 1 mps 712 mmHg 43%
    09:00 +24°C° 0 mm 1 mps 713 mmHg 39%
    10:00 +25°C° 0 mm 1 mps 712 mmHg 36%
    11:00 +26°C° 0 mm 2 mps 712 mmHg 34%
    12:00 +28°C° 0 mm 2 mps 712 mmHg 31%
    13:00 +28°C° 0 mm 2 mps 712 mmHg 30%
    14:00 +29°C° 0 mm 2 mps 712 mmHg 28%
    15:00 +29°C° 0 mm 3 mps 712 mmHg 27%
    16:00 +27°C° 0 mm 2 mps 712 mmHg 30%
    17:00 +25°C° 0 mm 2 mps 712 mmHg 34%
    18:00 +24°C° 0 mm 2 mps 712 mmHg 37%
    19:00 +23°C° 0 mm 1 mps 712 mmHg 40%
    20:00 +22°C° 0 mm 1 mps 712 mmHg 43%
    21:00 +21°C° 0 mm 1 mps 712 mmHg 45%
    22:00 +20°C° 0 mm 1 mps 712 mmHg 47%
    23:00 +20°C° 0 mm 1 mps 712 mmHg 49%

    26 September, Tuesday

    Time Temperature Precipitation Wind Pressure Humidity
    00:00 +19°C° 0 mm 1 mps 712 mmHg 50%
    01:00 +19°C° 0 mm 1 mps 712 mmHg 52%
    02:00 +18°C° 0 mm 1 mps 712 mmHg 53%
    03:00 +18°C° 0 mm 1 mps 712 mmHg 54%
    04:00 +16°C° 0 mm 1 mps 712 mmHg 55%
    05:00 +16°C° 0 mm 1 mps 712 mmHg 56%
    06:00 +16°C° 0 mm 1 mps 712 mmHg 57%
    07:00 +19°C° 0 mm 1 mps 712 mmHg 54%
    08:00 +19°C° 0 mm 2 mps 712 mmHg 51%
    09:00 +21°C° 0 mm 2 mps 712 mmHg 47%
    10:00 +23°C° 0 mm 2 mps 712 mmHg 45%
    11:00 +24°C° 0 mm 3 mps 712 mmHg 44%
    12:00 +25°C° 0 mm 3 mps 712 mmHg 42%
    13:00 +26°C° 0 mm 4 mps 711 mmHg 41%
    14:00 +26°C° 0 mm 4 mps 711 mmHg 41%
    15:00 +26°C° 0 mm 4 mps 711 mmHg 40%
    16:00 +25°C° 0 mm 3 mps 711 mmHg 44%
    17:00 +24°C° 0 mm 3 mps 711 mmHg 48%
    18:00 +21°C° 0 mm 2 mps 711 mmHg 51%
    19:00 +20°C° 0 mm 2 mps 711 mmHg 53%
    20:00 +20°C° 0 mm 2 mps 712 mmHg 54%
    21:00 +19°C° 0 mm 3 mps 712 mmHg 56%
    22:00 +18°C° 0 mm 3 mps 712 mmHg 59%
    23:00 +18°C° 0 mm 3 mps 712 mmHg 63%

    27 September, Wednesday

    Time Temperature Precipitation Wind Pressure Humidity
    00:00 +17°C° 0 mm 3 mps 712 mmHg 66%
    01:00 +17°C° 0 mm 3 mps 711 mmHg 69%
    02:00 +16°C° 0 mm 3 mps 711 mmHg 71%
    03:00 +16°C° 0 mm 2 mps 711 mmHg 73%
    04:00 +16°C° 0 mm 2 mps 711 mmHg 74%
    05:00 +16°C° 0 mm 2 mps 711 mmHg 75%
    06:00 +15°C° 0 mm 1 mps 711 mmHg 75%
    07:00 +16°C° 0 mm 2 mps 711 mmHg 74%
    08:00 +17°C° 0 mm 2 mps 711 mmHg 72%
    09:00 +17°C° 0 mm 2 mps 711 mmHg 70%
    10:00 +18°C° 0 mm 2 mps 711 mmHg 67%
    11:00 +19°C° 0 mm 2 mps 711 mmHg 64%
    12:00 +20°C° 0 mm 2 mps 711 mmHg 60%
    13:00 +20°C° 0 mm 2 mps 710 mmHg 58%
    14:00 +21°C° 0 mm 3 mps 710 mmHg 57%
    15:00 +21°C° 0 mm 3 mps 710 mmHg 55%
    16:00 +20°C° 0.1 mm 2 mps 710 mmHg 59%
    17:00 +19°C° 0.1 mm 2 mps 710 mmHg 63%
    18:00 +18°C° 0.1 mm 2 mps 711 mmHg 68%
    19:00 +18°C° 0.3 mm 2 mps 711 mmHg 71%
    20:00 +17°C° 0.3 mm 2 mps 711 mmHg 74%
    21:00 +17°C° 0.3 mm 2 mps 711 mmHg 78%
    22:00 +16°C° 0.5 mm 2 mps 711 mmHg 80%
    23:00 +16°C° 0.5 mm 2 mps 711 mmHg 83%
    Show more